SCP
0 0 0 0 0 0 0 0 0 0 0 0 0 0 0 1 1 1 1 1 1 1 2 2 1 1 0 0 0 0 0 0 0 0 0 0 0 0 0 0 0 0 0 0
0 0 0 0 0 0 0 0 0 0 0 0 0 0 0 0 1 1 1 1 1 1 2 2 1 1 1 1 0 0 0 0 0 0 0 0 0 0 0 0 0 0 0 0
0 0 0 0 0 0 0 0 0 0 0 0 0 0 0 0 1 1 1 1 1 1 1 2 2 1 1 1 1 0 0 0 0 0 0 0 0 0 0 0 0 0 0 0
0 0 0 0 0 0 0 0 0 0 0 0 0 0 0 0 0 1 1 1 1 1 1 2 1 1 1 1 1 1 0 0 0 0 0 0 0 0 0 0 0 0 0 0
0 0 0 0 0 0 0 0 0 0 0 0 0 0 0 0 0 0 1 1 1 1 1 1 1 1 1 1 1 1 0 0 0 0 0 0 0 0 0 0 0 0 0 0
0 0 0 0 0 0 0 0 0 0 0 0 0 0 0 0 0 0 0 0 0 1 1 1 1 1 1 1 1 1 1 0 0 0 0 0 0 0 0 0 0 0 0 0
0 0 0 0 0 0 0 0 0 0 0 0 0 0 0 0 0 0 0 0 1 1 1 1 1 1 1 1 1 1 1 0 0 0 0 0 0 0 0 1 0 0 0 0
0 0 0 0 0 0 0 0 0 0 0 0 0 0 0 0 0 0 0 0 1 1 1 1 1 1 1 1 1 1 1 1 1 1 1 1 1 1 1 1 0 0 0 0
0 0 0 0 0 0 0 0 0 0 0 0 0 0 0 0 0 0 0 0 1 1 1 1 1 1 1 1 1 1 1 1 1 1 1 1 1 1 1 0 0 0 0 0
0 0 0 0 0 0 0 0 0 0 0 0 0 0 0 0 0 0 0 0 1 1 1 1 1 1 1 1 1 1 1 1 1 1 0 0 0 0 0 0 0 0 0 0
0 0 0 0 0 0 0 0 0 0 0 0 0 0 0 0 0 0 0 0 0 1 1 1 1 1 1 1 1 1 1 1 0 0 0 0 0 0 0 0 0 0 0 0
0 0 0 0 0 0 0 0 0 0 0 0 0 0 0 0 0 0 0 0 0 1 1 1 1 1 1 1 1 1 1 0 0 0 0 0 0 0 0 0 0 0 0 0
0 0 0 0 0 0 0 0 0 0 0 0 0 0 0 0 0 0 0 1 1 1 1 1 1 1 1 2 1 1 1 0 0 0 0 0 0 0 0 0 0 0 0 0
0 0 0 0 0 0 0 0 0 0 0 0 0 0 0 0 0 0 0 1 1 1 1 1 1 2 2 2 1 1 1 1 1 0 0 0 0 0 0 0 0 0 0 0
0 0 0 0 0 0 0 0 0 0 0 0 0 0 0 0 0 0 0 0 1 1 0 1 1 2 2 2 2 1 1 1 1 1 0 0 0 0 0 0 0 0 0 0
0 0 0 0 0 0 0 0 0 0 0 0 0 0 0 0 0 0 0 0 0 1 1 1 1 1 2 2 2 1 1 1 1 1 0 0 0 0 0 0 0 0 0 0
0 0 0 0 0 0 0 0 0 0 0 0 0 0 0 0 0 0 0 0 1 1 1 1 1 1 1 2 2 2 1 1 1 1 1 0 0 0 0 0 0 0 0 0
0 0 0 0 0 0 0 0 0 0 0 0 0 0 0 0 0 0 0 0 1 1 1 1 1 1 1 1 2 2 2 2 2 1 1 0 1 1 0 0 0 1 1 0
0 0 0 0 0 0 0 0 0 0 0 0 0 0 0 0 0 0 0 0 1 1 1 1 1 1 1 1 2 3 2 2 2 1 1 0 1 1 1 1 1 1 1 1
0 0 0 0 0 0 0 0 0 0 0 0 0 0 0 0 0 0 0 0 1 1 1 1 1 1 0 1 2 2 2 2 2 1 1 1 1 1 1 1 1 1 1 1
0 0 0 0 0 0 0 0 0 0 0 0 0 0 0 0 0 0 0 0 1 1 1 1 1 0 0 1 1 2 2 2 2 2 1 1 1 1 1 1 1 1 1 1
0 0 0 0 0 0 0 0 0 0 0 0 0 0 0 0 0 0 1 1 1 1 1 1 0 0 0 0 1 1 1 1 1 2 1 1 1 1 2 2 1 1 1 2
0 0 0 0 0 0 0 0 0 0 0 0 0 0 0 0 0 0 1 1 1 1 0 0 0 0 0 0 1 1 1 1 1 2 2 2 2 2 2 2 2 2 2 2
0 0 0 0 0 0 0 0 0 0 0 0 0 0 0 0 0 0 0 0 0 0 0 0 0 0 0 0 1 1 1 1 1 2 3 3 3 4 4 4 3 3 3 3
0 0 0 0 0 0 0 0 0 0 0 0 0 0 0 0 0 0 0 0 0 0 0 0 0 0 0 0 1 1 1 1 2 3 4 5 5 5 5 4 3 2 2 2
0 0 0 0 0 0 0 0 0 0 0 0 0 0 0 0 0 0 0 0 0 0 0 0 0 0 0 0 1 1 1 1 2 3 5 5 5 5 5 3 2 1 1 1
Wind_Speed
4 4 3 2 2 3 4 2 1 1 3 2 3 4 6 8 7 6 7 7 7 8 9 8 7 6 5 5 5 5 5 3 3 2 2 2 1 1 2 2 3 3 3 4
3 3 2 2 2 3 4 3 1 1 1 2 3 4 6 8 8 7 7 7 7 8 9 10 9 7 6 5 5 6 5 4 4 2 1 1 2 1 2 2 3 3 3 3
3 1 1 2 2 3 3 3 2 1 2 5 5 5 6 7 7 7 7 7 7 9 11 11 10 8 7 6 5 5 5 5 5 4 1 1 2 2 2 2 1 2 3 3
3 2 2 3 2 4 2 2 3 4 4 4 6 3 4 7 8 9 8 7 7 7 9 10 9 9 7 6 6 5 5 5 5 4 2 1 2 1 1 2 1 2 3 3
2 2 3 3 3 4 2 3 5 7 6 6 6 3 2 6 8 9 9 9 8 9 9 10 10 9 8 7 6 5 4 4 4 4 3 1 1 1 2 2 3 2 3 3
4 3 3 3 2 3 3 4 7 7 4 5 5 4 2 3 5 8 9 10 10 10 9 9 9 8 7 7 5 4 4 4 4 4 4 2 2 2 3 2 2 2 2 2
7 7 5 3 3 3 4 3 2 2 3 3 1 1 2 3 4 5 7 9 10 10 10 9 9 9 8 8 7 5 5 5 4 4 4 4 3 2 3 2 2 1 2 2
6 5 7 6 4 3 4 3 2 2 2 1 1 1 3 4 4 4 6 7 9 9 10 10 10 9 8 8 8 7 6 5 5 4 4 4 3 2 2 2 2 2 2 2
4 2 6 5 4 4 3 3 4 4 5 3 0 2 4 5 5 4 6 7 8 10 10 10 10 10 9 8 8 8 7 6 6 4 4 3 3 3 3 2 2 2 2 2
5 3 4 4 5 6 6 5 2 2 2 2 0 1 1 3 3 3 5 6 7 8 10 10 9 10 9 8 8 8 8 7 6 5 4 4 4 3 2 2 2 2 2 2
7 5 5 6 6 6 6 5 3 2 3 2 1 1 3 3 3 3 4 5 6 8 9 10 9 9 9 8 8 7 7 6 6 6 5 4 4 4 3 2 2 2 2 2
5 5 6 7 6 5 5 5 4 3 3 2 0 1 3 3 3 4 4 5 5 7 8 9 9 8 8 8 8 8 7 7 6 6 5 5 4 4 4 3 3 3 2 2
3 5 5 4 5 6 6 6 6 5 4 3 1 1 4 4 4 4 4 5 6 7 8 8 8 8 8 8 8 8 8 7 7 6 6 6 5 5 4 4 4 3 3 3
3 7 7 6 2 3 6 6 6 6 4 3 2 1 2 3 3 4 4 5 6 7 8 8 7 7 7 7 8 8 8 7 8 7 6 6 6 5 4 4 4 3 3 3
6 9 9 7 5 5 6 7 7 8 7 5 3 2 1 1 3 4 5 5 5 6 7 8 8 8 8 7 7 7 8 7 8 8 7 7 6 6 5 4 4 3 3 3
8 9 9 9 8 9 9 9 9 8 8 7 5 3 2 2 2 2 5 5 5 6 6 7 7 8 8 8 8 7 8 8 8 8 7 7 6 6 6 5 4 4 3 3
8 9 9 8 9 9 10 9 9 8 7 7 6 2 1 1 2 2 4 5 5 5 6 6 7 7 8 8 8 7 8 8 8 8 8 8 7 6 6 6 5 4 4 3
9 8 5 7 8 10 5 3 5 6 6 5 4 2 2 2 2 3 3 4 4 5 5 5 5 6 6 7 8 7 7 8 8 8 8 7 7 7 6 6 5 5 4 4
10 8 6 6 8 8 5 5 5 5 6 3 3 2 1 2 3 2 3 4 4 5 5 5 5 6 6 6 8 7 7 7 7 7 8 8 8 7 7 6 6 5 4 4
12 10 7 6 7 7 3 2 2 4 5 2 2 1 1 1 2 2 3 3 3 4 4 4 4 5 5 5 7 7 7 8 8 8 8 8 8 8 7 6 5 4 4 4
13 10 9 9 8 6 2 2 2 4 1 2 2 1 1 1 1 2 2 3 4 3 4 4 3 4 4 5 6 7 7 7 7 7 7 7 7 8 7 6 5 5 4 4
9 9 10 9 9 6 2 2 2 0 2 2 2 2 2 2 3 3 3 3 3 4 3 4 4 3 3 4 5 6 6 6 7 7 7 7 7 7 7 6 5 5 5 5
8 6 4 5 3 2 1 1 2 3 3 3 3 2 2 2 2 2 2 3 3 3 3 3 4 3 3 4 4 5 5 6 7 8 8 7 7 6 6 6 6 5 4 4
6 4 5 5 4 3 2 2 1 2 3 4 3 2 1 1 1 1 1 2 2 2 2 3 3 3 3 3 4 5 4 6 6 7 7 7 7 6 6 4 4 4 4 4
4 3 5 6 3 2 2 1 1 1 2 2 2 3 2 1 1 0 0 2 2 2 2 2 3 3 3 3 4 5 5 6 6 6 7 7 6 6 5 4 3 3 3 4
5 5 5 5 3 3 2 1 0 2 3 2 1 1 2 1 1 1 0 1 2 2 3 2 3 3 3 3 3 4 5 6 6 6 6 5 5 5 5 5 3 3 3 4
Wind_Direction
207 228 244 249 229 281 303 322 327 126 152 216 217 209 190 182 185 188 186 181 179 175 167 155 156 153 161 159 149 149 147 133 110 88 80 85 72 53 59 64 49 28 38 35
227 232 270 288 268 250 267 277 266 130 139 261 242 228 198 179 187 192 193 186 184 175 166 161 166 163 167 162 157 151 145 130 118 114 119 131 124 104 89 62 47 27 43 40
234 253 243 242 261 268 261 274 293 259 214 238 248 238 200 182 184 189 197 189 183 180 173 168 169 167 166 167 166 153 149 143 138 135 101 75 72 61 80 79 57 33 49 44
235 229 260 245 254 278 285 317 292 276 259 252 233 265 196 180 185 192 193 189 182 179 176 167 168 166 169 166 162 161 162 153 141 133 109 114 108 104 107 120 112 83 64 63
232 204 239 258 266 275 275 289 271 269 271 273 250 259 204 176 185 192 190 190 186 179 174 167 168 165 166 161 160 164 155 136 128 125 124 123 95 100 104 102 100 89 69 62
234 238 249 268 275 251 249 264 264 258 264 272 245 220 196 173 185 181 183 185 187 178 174 166 162 157 156 150 152 154 142 126 126 132 143 146 117 102 101 99 102 103 94 61
220 214 202 219 244 228 247 271 288 247 219 247 240 188 128 134 145 164 176 178 182 175 170 167 162 162 158 155 158 154 145 145 150 158 159 145 142 139 123 117 115 102 101 90
233 210 192 202 233 247 246 248 268 293 280 295 339 94 112 124 131 150 159 162 166 167 170 168 164 162 160 162 163 161 161 160 160 164 158 150 149 132 115 111 111 102 97 106
249 197 163 189 229 252 243 245 256 282 290 291 170 116 120 122 124 146 154 155 160 165 167 164 162 162 164 167 168 168 166 162 161 161 156 151 138 122 113 117 109 104 110 110
259 243 183 178 219 231 250 270 268 272 293 297 187 142 130 117 127 147 153 155 161 164 163 163 164 163 165 165 168 170 165 165 162 164 165 152 137 133 131 120 107 105 99 96
252 240 204 190 211 229 218 238 255 268 263 284 312 77 135 157 159 158 145 143 154 161 161 161 162 162 159 161 165 166 164 164 162 165 160 147 142 145 141 132 129 121 109 112
232 252 235 215 203 228 241 247 242 252 286 282 277 77 131 150 137 130 129 135 143 149 152 153 154 155 158 166 171 170 170 169 166 166 159 152 152 155 155 155 149 142 133 135
261 247 240 213 198 210 232 239 253 259 269 275 261 156 142 137 120 114 123 135 139 139 145 149 153 159 164 171 173 173 173 171 165 164 160 160 164 165 162 159 158 158 158 160
276 257 253 247 252 216 227 233 245 252 251 262 255 183 161 134 123 126 136 141 140 147 153 154 157 164 167 173 176 175 175 171 165 164 164 164 163 161 159 156 159 165 160 152
244 257 261 267 263 256 243 237 239 250 257 258 260 251 217 144 137 145 143 138 142 149 154 159 166 169 171 174 178 177 173 172 169 164 169 170 168 162 160 159 162 165 161 158
232 253 259 257 247 249 253 246 237 241 250 253 257 256 199 148 121 138 141 147 157 158 162 166 173 173 175 177 176 176 174 174 169 167 171 166 163 160 162 165 169 170 162 160
235 243 254 256 251 250 247 240 240 237 241 246 245 245 147 150 147 152 152 163 163 162 165 172 178 176 179 179 174 175 177 174 170 168 167 165 164 165 170 172 171 169 164 168
247 249 251 254 250 247 244 218 235 248 248 243 238 234 205 178 149 157 156 147 151 157 162 172 176 172 176 176 173 172 171 171 170 167 166 164 167 168 168 169 170 171 169 169
239 234 242 249 249 251 238 234 227 243 252 241 226 223 208 187 195 156 125 131 145 151 158 166 174 168 170 174 170 167 169 169 167 168 170 170 169 163 166 171 171 172 173 170
229 230 231 241 246 247 219 213 217 250 248 221 200 186 196 207 202 136 117 118 135 141 145 155 164 164 167 168 163 164 170 172 173 173 173 169 163 160 167 170 167 166 170 172
209 218 224 237 247 251 205 195 197 231 211 103 125 116 94 5 64 114 112 117 117 126 134 142 153 165 170 166 163 166 171 178 171 164 162 160 159 161 163 163 163 162 164 165
218 211 218 225 234 232 163 191 225 13 45 45 68 68 59 60 73 88 98 105 116 122 131 148 154 161 166 165 170 175 176 169 155 153 153 158 159 163 164 162 167 168 166 170
234 232 222 221 217 140 149 118 36 3 0 15 35 57 48 58 75 89 111 119 125 131 135 143 149 154 167 171 177 176 168 155 152 152 157 161 160 159 160 162 168 171 170 172
245 250 244 241 206 180 172 107 60 3 360 12 14 6 38 32 41 63 120 134 139 146 149 145 146 153 166 176 176 169 159 154 154 159 161 162 162 161 163 162 166 170 177 178
266 266 265 259 240 212 199 192 320 349 333 350 2 345 1 31 0 345 154 149 148 146 147 154 159 162 171 183 176 163 159 161 162 164 162 165 163 161 158 149 146 170 169 174
247 252 247 259 277 281 255 227 226 277 289 299 305 327 343 340 323 316 264 152 151 156 156 160 159 161 180 183 177 169 169 169 170 169 167 164 160 157 153 144 124 76 112 129